| time (UTC) | temp C | wind direction | speed KPH | gust KPH | rain 1hr cm | rain 24hr cm | rain mn cm | humidity % | barometer mb |
| 20260505122204 | 1 | 330 | 0.0 | 6.4 | 0.03 | 1.17 | 0.64 | 93 | 1016.3 |
| 20260505121204 | 1 | 331 | 1.6 | 6.4 | 0.05 | 1.17 | 0.64 | 92 | 1016.2 |
| 20260505120704 | 1 | 355 | 0.0 | 6.4 | 0.05 | 1.17 | 0.64 | 92 | 1016.2 |
| 20260505120205 | 2 | 355 | 0.0 | 6.4 | 0.08 | 1.17 | 0.64 | 92 | 1016.2 |
| 20260505115704 | 2 | 342 | 0.0 | 3.2 | 0.10 | 1.17 | 0.64 | 93 | 1016.2 |
| 20260505115205 | 2 | 342 | 0.0 | 6.4 | 0.10 | 1.17 | 0.64 | 93 | 1016.1 |
| 20260505114704 | 2 | 345 | 0.0 | 6.4 | 0.13 | 1.17 | 0.64 | 93 | 1016.1 |
| 20260505114205 | 2 | 5 | 0.0 | 6.4 | 0.10 | 1.14 | 0.61 | 93 | 1016.2 |
| 20260505113704 | 2 | 52 | 0.0 | 3.2 | 0.13 | 1.14 | 0.61 | 93 | 1016.0 |
| 20260505113204 | 2 | 350 | 0.0 | 6.4 | 0.15 | 1.14 | 0.61 | 93 | 1016.0 |
| 20260505112705 | 2 | 355 | 0.0 | 11.3 | 0.18 | 1.14 | 0.61 | 93 | 1015.9 |
| 20260505112204 | 2 | 346 | 1.6 | 11.3 | 0.15 | 1.12 | 0.58 | 92 | 1015.9 |
| 20260505111705 | 2 | 342 | 1.6 | 12.9 | 0.15 | 1.12 | 0.58 | 92 | 1015.9 |
| 20260505111204 | 2 | 5 | 3.2 | 12.9 | 0.18 | 1.12 | 0.58 | 92 | 1015.9 |
| 20260505110704 | 2 | 347 | 4.8 | 12.9 | 0.18 | 1.09 | 0.56 | 92 | 1015.8 |
| 20260505110204 | 3 | 351 | 3.2 | 12.9 | 0.20 | 1.09 | 0.56 | 92 | 1015.5 |
| 20260505102205 | 5 | 19 | 3.2 | 14.5 | 0.23 | 0.97 | 0.43 | 92 | 1015.1 |
| 20260505101704 | 5 | 49 | 3.2 | 14.5 | 0.23 | 0.97 | 0.43 | 93 | 1014.9 |
| 20260505101205 | 5 | 27 | 3.2 | 12.9 | 0.23 | 0.94 | 0.41 | 92 | 1014.8 |
| 20260505100204 | 5 | 5 | 1.6 | 12.9 | 0.18 | 0.89 | 0.36 | 92 | 1014.7 |
| 20260505095704 | 5 | 25 | 3.2 | 9.7 | 0.13 | 0.84 | 0.30 | 92 | 1014.7 |
| 20260505095204 | 5 | 44 | 1.6 | 12.9 | 0.10 | 0.81 | 0.28 | 92 | 1014.6 |
| 20260505094704 | 5 | 53 | 1.6 | 12.9 | 0.08 | 0.79 | 0.25 | 92 | 1014.5 |
| 20260505094205 | 5 | 65 | 1.6 | 12.9 | 0.05 | 0.76 | 0.23 | 92 | 1014.5 |
| 20260505093704 | 5 | 44 | 3.2 | 12.9 | 0.05 | 0.74 | 0.20 | 92 | 1014.4 |
| 20260505092704 | 5 | 29 | 3.2 | 12.9 | 0.08 | 0.74 | 0.20 | 92 | 1014.4 |
| 20260505092204 | 5 | 5 | 4.8 | 16.1 | 0.08 | 0.74 | 0.20 | 92 | 1014.4 |
| 20260505091704 | 5 | 11 | 4.8 | 16.1 | 0.10 | 0.74 | 0.20 | 92 | 1014.1 |
| 20260505091204 | 5 | 336 | 4.8 | 16.1 | 0.08 | 0.71 | 0.18 | 92 | 1014.0 |
| 20260505090704 | 5 | 46 | 4.8 | 16.1 | 0.10 | 0.71 | 0.18 | 92 | 1013.9 |
| 20260505090204 | 5 | 5 | 3.2 | 16.1 | 0.10 | 0.71 | 0.18 | 92 | 1014.1 |
| 20260505085705 | 6 | 26 | 3.2 | 19.3 | 0.10 | 0.71 | 0.18 | 92 | 1014.0 |
| 20260505084206 | 6 | 17 | 6.4 | 22.5 | 0.15 | 0.69 | 0.15 | 91 | 1014.0 |
| 20260505083704 | 6 | 350 | 4.8 | 22.5 | 0.15 | 0.69 | 0.15 | 92 | 1013.9 |
| 20260505083204 | 6 | 26 | 3.2 | 12.9 | 0.13 | 0.66 | 0.13 | 91 | 1013.9 |
| 20260505082704 | 6 | 349 | 1.6 | 14.5 | 0.13 | 0.66 | 0.13 | 91 | 1013.9 |
| 20260505082204 | 6 | 355 | 1.6 | 14.5 | 0.13 | 0.66 | 0.13 | 91 | 1013.9 |
| 20260505081705 | 6 | 355 | 1.6 | 14.5 | 0.10 | 0.64 | 0.10 | 91 | 1014.0 |
| 20260505081204 | 6 | 9 | 3.2 | 14.5 | 0.10 | 0.64 | 0.10 | 91 | 1014.1 |
| 20260505080704 | 6 | 337 | 4.8 | 14.5 | 0.08 | 0.61 | 0.08 | 91 | 1014.0 |
| 20260505080205 | 6 | 355 | 4.8 | 14.5 | 0.08 | 0.61 | 0.08 | 91 | 1013.9 |
| 20260505075204 | 6 | 26 | 4.8 | 17.7 | 0.05 | 0.58 | 0.05 | 90 | 1013.9 |
| 20260505074704 | 6 | 28 | 6.4 | 17.7 | 0.03 | 0.56 | 0.03 | 90 | 1013.9 |
| 20260505074204 | 7 | 9 | 4.8 | 17.7 | 0.00 | 0.53 | 0.00 | 90 | 1014.0 |
| 20260505073704 | 7 | 340 | 3.2 | 17.7 | 0.00 | 0.53 | 0.00 | 90 | 1014.0 |
| 20260505072704 | 8 | 15 | 6.4 | 11.3 | 0.00 | 0.53 | 0.00 | 89 | 1013.9 |
| 20260505072204 | 8 | 317 | 1.6 | 9.7 | 0.00 | 0.53 | 0.00 | 91 | 1013.9 |
| 20260505071205 | 9 | 189 | 0.0 | 0.0 | 0.00 | 0.53 | 0.00 | 91 | 1013.9 |
| 20260505070704 | 8 | 189 | 0.0 | 0.0 | 0.00 | 0.53 | 0.00 | 91 | 1013.6 |
| 20260505070204 | 8 | 189 | 0.0 | 0.0 | 0.00 | 0.53 | 0.00 | 91 | 1013.5 |
| 20260505065704 | 8 | 189 | 0.0 | 0.0 | 0.00 | 0.53 | 0.00 | 90 | 1013.5 |
| 20260505065204 | 8 | 189 | 0.0 | 0.0 | 0.00 | 0.53 | 0.00 | 91 | 1013.4 |
| 20260505064704 | 8 | 189 | 0.0 | 0.0 | 0.00 | 0.53 | 0.00 | 91 | 1013.3 |
| 20260505064206 | 8 | 189 | 0.0 | 0.0 | 0.00 | 0.53 | 0.00 | 91 | 1013.3 |
| 20260505063704 | 8 | 189 | 0.0 | 0.0 | 0.00 | 0.53 | 0.00 | 90 | 1013.3 |
| 20260505063204 | 8 | 189 | 0.0 | 0.0 | 0.00 | 0.53 | 0.00 | 90 | 1013.4 |
| 20260505062704 | 8 | 189 | 0.0 | 0.0 | 0.00 | 0.53 | 0.00 | 90 | 1013.4 |
| 20260505061704 | 8 | 189 | 0.0 | 0.0 | 0.00 | 0.53 | 0.00 | 90 | 1013.3 |
| 20260505061204 | 8 | 189 | 0.0 | 0.0 | 0.00 | 0.53 | 0.00 | 90 | 1013.4 |
| 20260505060204 | 8 | 189 | 0.0 | 0.0 | 0.00 | 0.53 | 0.53 | 90 | 1013.4 |
| 20260505055704 | 8 | 189 | 0.0 | 0.0 | 0.00 | 0.53 | 0.53 | 90 | 1013.4 |
| 20260505055204 | 8 | 189 | 0.0 | 0.0 | 0.00 | 0.53 | 0.53 | 90 | 1013.4 |
| 20260505054704 | 8 | 189 | 0.0 | 0.0 | 0.00 | 0.53 | 0.53 | 89 | 1013.4 |
| 20260505054205 | 8 | 189 | 0.0 | 0.0 | 0.00 | 0.53 | 0.53 | 89 | 1013.3 |
| 20260505053704 | 8 | 189 | 0.0 | 0.0 | 0.00 | 0.53 | 0.53 | 89 | 1013.3 |
| 20260505053205 | 8 | 189 | 0.0 | 0.0 | 0.00 | 0.53 | 0.53 | 89 | 1013.1 |
| 20260505052204 | 8 | 189 | 0.0 | 0.0 | 0.00 | 0.53 | 0.53 | 89 | 1013.3 |
| 20260505051704 | 8 | 189 | 0.0 | 0.0 | 0.00 | 0.53 | 0.53 | 89 | 1013.2 |
| 20260505051204 | 8 | 189 | 0.0 | 0.0 | 0.00 | 0.53 | 0.53 | 89 | 1013.1 |
| 20260505050704 | 8 | 189 | 0.0 | 0.0 | 0.00 | 0.53 | 0.53 | 89 | 1013.1 |
| 20260505050204 | 8 | 189 | 0.0 | 0.0 | 0.00 | 0.53 | 0.53 | 88 | 1013.1 |
| 20260505041704 | 9 | 190 | 1.6 | 8.0 | 0.15 | 0.53 | 0.53 | 88 | 1013.3 |
| 20260505041204 | 9 | 198 | 1.6 | 8.0 | 0.18 | 0.53 | 0.53 | 88 | 1013.5 |
| 20260505040205 | 9 | 244 | 1.6 | 4.8 | 0.28 | 0.53 | 0.53 | 88 | 1013.5 |
| 20260505035704 | 9 | 215 | 0.0 | 8.0 | 0.33 | 0.53 | 0.53 | 88 | 1013.4 |
| 20260505035205 | 9 | 213 | 1.6 | 9.7 | 0.38 | 0.53 | 0.53 | 87 | 1013.2 |
| 20260505034704 | 9 | 206 | 1.6 | 9.7 | 0.41 | 0.51 | 0.51 | 87 | 1013.4 |
| 20260505034205 | 9 | 227 | 3.2 | 9.7 | 0.43 | 0.48 | 0.48 | 87 | 1013.4 |
| 20260505033704 | 10 | 231 | 1.6 | 8.0 | 0.46 | 0.48 | 0.48 | 87 | 1013.6 |
| 20260505032705 | 10 | 261 | 1.6 | 6.4 | 0.41 | 0.43 | 0.43 | 86 | 1013.5 |
| 20260505032204 | 10 | 269 | 1.6 | 11.3 | 0.38 | 0.41 | 0.41 | 86 | 1013.5 |
| 20260505031205 | 10 | 271 | 3.2 | 12.9 | 0.30 | 0.33 | 0.33 | 84 | 1013.3 |
| 20260505030704 | 10 | 258 | 3.2 | 12.9 | 0.28 | 0.30 | 0.30 | 83 | 1013.3 |
| 20260505030205 | 10 | 293 | 3.2 | 9.7 | 0.23 | 0.25 | 0.25 | 82 | 1013.3 |
| 20260505025704 | 10 | 289 | 3.2 | 9.7 | 0.15 | 0.18 | 0.18 | 81 | 1013.1 |
| 20260505025204 | 10 | 286 | 3.2 | 8.0 | 0.13 | 0.15 | 0.15 | 79 | 1012.9 |
| 20260505024705 | 10 | 277 | 1.6 | 6.4 | 0.08 | 0.08 | 0.08 | 78 | 1012.8 |
| 20260505024204 | 11 | 290 | 1.6 | 4.8 | 0.03 | 0.03 | 0.03 | 77 | 1012.7 |
| 20260505023705 | 11 | 294 | 1.6 | 6.4 | 0.03 | 0.03 | 0.03 | 76 | 1012.7 |
| 20260505022704 | 11 | 295 | 1.6 | 6.4 | 0.03 | 0.03 | 0.03 | 75 | 1012.5 |
| 20260505021704 | 11 | 295 | 1.6 | 4.8 | 0.03 | 0.03 | 0.03 | 74 | 1012.2 |
| 20260505021205 | 11 | 296 | 0.0 | 4.8 | 0.03 | 0.03 | 0.03 | 73 | 1012.2 |
| 20260505020704 | 11 | 296 | 0.0 | 4.8 | 0.03 | 0.03 | 0.03 | 72 | 1012.2 |
| 20260505020205 | 11 | 296 | 1.6 | 6.4 | 0.03 | 0.03 | 0.03 | 72 | 1012.4 |
| 20260505015704 | 11 | 296 | 1.6 | 8.0 | 0.03 | 0.03 | 0.03 | 70 | 1012.5 |
| 20260505015205 | 11 | 294 | 1.6 | 8.0 | 0.03 | 0.03 | 0.03 | 69 | 1012.4 |
| 20260505014204 | 12 | 319 | 3.2 | 14.5 | 0.00 | 0.00 | 0.00 | 67 | 1012.2 |
| 20260505013704 | 12 | 325 | 3.2 | 14.5 | 0.00 | 0.00 | 0.00 | 66 | 1012.0 |
| 20260505013204 | 12 | 315 | 4.8 | 14.5 | 0.00 | 0.00 | 0.00 | 65 | 1012.0 |
| 20260505012204 | 13 | 0 | 4.8 | 16.1 | 0.00 | 0.00 | 0.00 | 62 | 1012.2 |
| 20260505011704 | 13 | 323 | 4.8 | 16.1 | 0.00 | 0.00 | 0.00 | 62 | 1012.1 |
| 20260505011204 | 14 | 9 | 3.2 | 16.1 | 0.00 | 0.00 | 0.00 | 59 | 1011.9 |
| 20260505005705 | 14 | 305 | 1.6 | 8.0 | 0.00 | 0.00 | 0.00 | 59 | 1011.8 |
| 20260505005204 | 14 | 304 | 1.6 | 6.4 | 0.00 | 0.00 | 0.00 | 58 | 1011.7 |
| 20260505004704 | 14 | 302 | 1.6 | 8.0 | 0.00 | 0.00 | 0.00 | 57 | 1011.7 |
| 20260505004204 | 14 | 300 | 1.6 | 8.0 | 0.00 | 0.00 | 0.00 | 57 | 1011.5 |
| 20260505003705 | 14 | 300 | 1.6 | 8.0 | 0.00 | 0.00 | 0.00 | 57 | 1011.4 |
| 20260505003205 | 14 | 300 | 0.0 | 9.7 | 0.00 | 0.00 | 0.00 | 57 | 1011.4 |
| 20260505002704 | 14 | 300 | 1.6 | 9.7 | 0.00 | 0.00 | 0.00 | 57 | 1011.3 |
| 20260505002205 | 14 | 300 | 3.2 | 8.0 | 0.00 | 0.00 | 0.00 | 57 | 1011.4 |
| 20260505001704 | 14 | 333 | 1.6 | 8.0 | 0.00 | 0.00 | 0.00 | 57 | 1011.3 |
| 20260505001204 | 14 | 333 | 1.6 | 9.7 | 0.00 | 0.00 | 0.00 | 58 | 1011.3 |
| 20260505000704 | 14 | 331 | 3.2 | 11.3 | 0.00 | 0.00 | 0.00 | 59 | 1011.3 |
| 20260504235704 | 15 | 5 | 4.8 | 12.9 | 0.00 | 0.00 | 0.00 | 57 | 1011.3 |
| 20260504234204 | 15 | 341 | 0.0 | 8.0 | 0.00 | 0.00 | 0.00 | 53 | 1011.2 |
| 20260504233705 | 15 | 290 | 1.6 | 9.7 | 0.00 | 0.00 | 0.00 | 52 | 1011.2 |
| 20260504233204 | 15 | 290 | 3.2 | 9.7 | 0.00 | 0.00 | 0.00 | 52 | 1011.1 |
| 20260504232204 | 15 | 338 | 1.6 | 11.3 | 0.00 | 0.00 | 0.00 | 49 | 1011.2 |
| 20260504231705 | 15 | 340 | 3.2 | 30.6 | 0.00 | 0.00 | 0.00 | 48 | 1011.1 |
| 20260504231204 | 15 | 213 | 4.8 | 30.6 | 0.00 | 0.00 | 0.00 | 54 | 1011.2 |
| 20260504230705 | 15 | 211 | 9.7 | 30.6 | 0.00 | 0.00 | 0.00 | 52 | 1011.2 |
| 20260504225704 | 16 | 267 | 8.0 | 24.1 | 0.00 | 0.00 | 0.00 | 47 | 1011.2 |
| 20260504225204 | 16 | 296 | 8.0 | 24.1 | 0.00 | 0.00 | 0.00 | 44 | 1011.2 |
| 20260504224705 | 17 | 290 | 8.0 | 14.5 | 0.00 | 0.00 | 0.00 | 42 | 1011.2 |
| 20260504224205 | 17 | 286 | 8.0 | 14.5 | 0.00 | 0.00 | 0.00 | 41 | 1011.1 |
| 20260504223705 | 17 | 271 | 4.8 | 11.3 | 0.00 | 0.00 | 0.00 | 39 | 1011.0 |
| 20260504222704 | 17 | 13 | 0.0 | 11.3 | 0.00 | 0.00 | 0.00 | 38 | 1010.7 |
| 20260504222205 | 17 | 13 | 1.6 | 11.3 | 0.00 | 0.00 | 0.00 | 38 | 1010.6 |
| 20260504221704 | 17 | 13 | 3.2 | 14.5 | 0.00 | 0.00 | 0.00 | 38 | 1010.4 |
| 20260504221204 | 17 | 338 | 4.8 | 14.5 | 0.00 | 0.00 | 0.00 | 39 | 1010.1 |
| 20260504220705 | 17 | 340 | 6.4 | 19.3 | 0.00 | 0.00 | 0.00 | 40 | 1010.0 |
| 20260504220204 | 17 | 39 | 6.4 | 19.3 | 0.00 | 0.00 | 0.00 | 40 | 1010.0 |
| 20260504215704 | 17 | 32 | 8.0 | 19.3 | 0.00 | 0.00 | 0.00 | 39 | 1009.9 |
| 20260504214705 | 17 | 63 | 8.0 | 19.3 | 0.00 | 0.00 | 0.00 | 39 | 1009.8 |
| 20260504214204 | 17 | 347 | 9.7 | 20.9 | 0.00 | 0.00 | 0.00 | 40 | 1009.9 |
| 20260504213704 | 18 | 37 | 9.7 | 30.6 | 0.00 | 0.00 | 0.00 | 40 | 1010.0 |
| 20260504213204 | 18 | 21 | 11.3 | 30.6 | 0.00 | 0.00 | 0.00 | 38 | 1010.1 |
| 20260504212705 | 18 | 348 | 11.3 | 30.6 | 0.00 | 0.00 | 0.00 | 37 | 1010.1 |
| 20260504212204 | 19 | 355 | 11.3 | 22.5 | 0.00 | 0.00 | 0.00 | 35 | 1010.1 |
| 20260504211704 | 19 | 22 | 9.7 | 25.7 | 0.00 | 0.00 | 0.00 | 35 | 1010.1 |
| 20260504210704 | 18 | 344 | 9.7 | 25.7 | 0.00 | 0.00 | 0.00 | 38 | 1010.4 |
| 20260504205704 | 18 | 284 | 8.0 | 19.3 | 0.00 | 0.00 | 0.00 | 35 | 1010.6 |
| 20260504205204 | 19 | 349 | 4.8 | 16.1 | 0.00 | 0.00 | 0.00 | 32 | 1010.6 |
| 20260504204704 | 20 | 40 | 4.8 | 24.1 | 0.00 | 0.00 | 0.00 | 30 | 1010.5 |
| 20260504204205 | 20 | 46 | 6.4 | 24.1 | 0.00 | 0.00 | 0.00 | 28 | 1010.4 |
| 20260504203704 | 20 | 90 | 9.7 | 25.7 | 0.00 | 0.00 | 0.00 | 28 | 1010.0 |
| 20260504203204 | 21 | 132 | 9.7 | 25.7 | 0.00 | 0.00 | 0.00 | 34 | 1009.9 |
| 20260504202704 | 20 | 182 | 11.3 | 25.7 | 0.00 | 0.00 | 0.00 | 40 | 1009.8 |
| 20260504202205 | 20 | 146 | 11.3 | 24.1 | 0.00 | 0.00 | 0.00 | 33 | 1009.8 |
| 20260504201704 | 20 | 199 | 11.3 | 24.1 | 0.00 | 0.00 | 0.00 | 29 | 1009.6 |
| 20260504200704 | 20 | 244 | 6.4 | 19.3 | 0.00 | 0.00 | 0.00 | 27 | 1009.7 |
| 20260504200204 | 21 | 263 | 6.4 | 19.3 | 0.00 | 0.00 | 0.00 | 26 | 1009.8 |
| 20260504195704 | 22 | 192 | 9.7 | 19.3 | 0.00 | 0.00 | 0.00 | 24 | 1009.9 |
| 20260504195204 | 22 | 223 | 8.0 | 16.1 | 0.00 | 0.00 | 0.00 | 20 | 1009.9 |
| 20260504194704 | 23 | 243 | 6.4 | 16.1 | 0.00 | 0.00 | 0.00 | 20 | 1009.6 |
| 20260504194204 | 23 | 264 | 4.8 | 16.1 | 0.00 | 0.00 | 0.00 | 19 | 1009.3 |
| 20260504193704 | 23 | 263 | 6.4 | 16.1 | 0.00 | 0.00 | 0.00 | 18 | 1009.4 |
| 20260504193204 | 23 | 287 | 6.4 | 16.1 | 0.00 | 0.00 | 0.00 | 17 | 1009.3 |
| 20260504192705 | 23 | 328 | 4.8 | 14.5 | 0.00 | 0.00 | 0.00 | 17 | 1009.2 |
| 20260504192204 | 23 | 278 | 4.8 | 14.5 | 0.00 | 0.00 | 0.00 | 16 | 1009.2 |
| 20260504191704 | 23 | 311 | 4.8 | 14.5 | 0.00 | 0.00 | 0.00 | 18 | 1009.2 |
| 20260504191204 | 23 | 284 | 6.4 | 14.5 | 0.00 | 0.00 | 0.00 | 19 | 1009.2 |
| 20260504190705 | 23 | 292 | 6.4 | 14.5 | 0.00 | 0.00 | 0.00 | 18 | 1009.2 |
| 20260504190204 | 23 | 249 | 4.8 | 11.3 | 0.00 | 0.00 | 0.00 | 20 | 1009.2 |
| 20260504185704 | 22 | 290 | 4.8 | 16.1 | 0.00 | 0.00 | 0.00 | 20 | 1009.3 |
| 20260504185205 | 22 | 303 | 6.4 | 16.1 | 0.00 | 0.00 | 0.00 | 20 | 1009.3 |
| 20260504184704 | 22 | 270 | 6.4 | 19.3 | 0.00 | 0.00 | 0.00 | 21 | 1009.4 |
| 20260504184205 | 22 | 300 | 6.4 | 19.3 | 0.00 | 0.00 | 0.00 | 20 | 1009.4 |
| 20260504183704 | 22 | 265 | 8.0 | 19.3 | 0.00 | 0.00 | 0.00 | 21 | 1009.6 |
| 20260504183205 | 23 | 269 | 9.7 | 19.3 | 0.00 | 0.00 | 0.00 | 21 | 1009.6 |
| 20260504182704 | 23 | 321 | 9.7 | 19.3 | 0.00 | 0.00 | 0.00 | 21 | 1009.7 |
| 20260504182204 | 23 | 273 | 8.0 | 22.5 | 0.00 | 0.00 | 0.00 | 21 | 1009.7 |
| 20260504181704 | 23 | 283 | 9.7 | 22.5 | 0.00 | 0.00 | 0.00 | 22 | 1009.8 |
| 20260504181204 | 22 | 283 | 9.7 | 22.5 | 0.00 | 0.00 | 0.00 | 23 | 1009.9 |
| 20260504180704 | 23 | 322 | 8.0 | 19.3 | 0.00 | 0.00 | 0.00 | 22 | 1010.0 |
| 20260504180204 | 23 | 302 | 9.7 | 24.1 | 0.00 | 0.00 | 0.00 | 24 | 1010.1 |
| 20260504175704 | 22 | 285 | 9.7 | 29.0 | 0.00 | 0.00 | 0.00 | 24 | 1010.3 |
| 20260504175204 | 22 | 306 | 11.3 | 29.0 | 0.00 | 0.00 | 0.00 | 25 | 1010.3 |
| 20260504174705 | 22 | 294 | 12.9 | 29.0 | 0.00 | 0.00 | 0.00 | 25 | 1010.4 |
| 20260504174205 | 22 | 277 | 11.3 | 29.0 | 0.00 | 0.00 | 0.00 | 25 | 1010.6 |
| 20260504173705 | 22 | 285 | 12.9 | 29.0 | 0.00 | 0.00 | 0.00 | 25 | 1010.7 |
| 20260504173204 | 21 | 322 | 14.5 | 29.0 | 0.00 | 0.00 | 0.00 | 26 | 1010.7 |
| 20260504172704 | 21 | 271 | 14.5 | 29.0 | 0.00 | 0.00 | 0.00 | 26 | 1010.8 |
| 20260504172204 | 21 | 289 | 14.5 | 29.0 | 0.00 | 0.00 | 0.00 | 27 | 1010.7 |
| 20260504171705 | 21 | 275 | 11.3 | 27.4 | 0.00 | 0.00 | 0.00 | 27 | 1010.8 |
| 20260504171204 | 21 | 274 | 11.3 | 27.4 | 0.00 | 0.00 | 0.00 | 28 | 1010.8 |
| 20260504170205 | 20 | 272 | 8.0 | 19.3 | 0.00 | 0.00 | 0.00 | 29 | 1011.0 |
| 20260504160204 | 18 | 265 | 6.4 | 14.5 | 0.00 | 0.00 | 0.00 | 31 | 1011.1 |
| 20260504150704 | 16 | 283 | 3.2 | 8.0 | 0.00 | 0.00 | 0.00 | 32 | 1011.2 |
| 20260504150204 | 16 | 282 | 1.6 | 8.0 | 0.00 | 0.00 | 0.00 | 33 | 1011.2 |
| 20260504141205 | 14 | 227 | 4.8 | 9.7 | 0.00 | 0.00 | 0.00 | 34 | 1011.4 |
| 20260504140704 | 13 | 236 | 4.8 | 9.7 | 0.00 | 0.00 | 0.00 | 36 | 1011.4 |
| 20260504140205 | 12 | 234 | 4.8 | 9.7 | 0.00 | 0.00 | 0.00 | 38 | 1011.4 |
| 20260504130204 | 8 | 188 | 0.0 | 0.0 | 0.00 | 0.00 | 0.00 | 54 | 1011.2 |